Location: Ellerstadt
(49.4644°N, 8.2615°E)
Time: 10:08:31
(UTC+00:00)

Helios 1A Rocket - Pass Details

Date: 03 March 2021
Orbit: 563 x 585 km, 98.3° (Epoch: 12 April)

Event Time Altitude Azimuth Distance (km) Brightness Sun altitude
Rises 17:39:13 0° 140° (SE) 2,769 6.0 -5.0°
Reaches altitude 10° 17:41:30 10° 131° (SE) 1,872 5.1 -5.4°
Maximum altitude 17:45:09 33° 67° (ENE) 963 3.6 -6.0°
Drops below altitude 10° 17:48:48 10° 2° (N) 1,876 5.5 -6.6°
Sets 17:51:05 0° 353° (N) 2,775 6.5 -7.0°
